KSHVKTUP

Guest
Details From KSHV - Shreveport Rgnl
To KTUP - Tupelo Rgnl
Flight Number -
Tags Generated
Created
Modified
Stats Distance 277 nm / 513 km
Max Altitude 0 ft / 0 m
Waypoints 3
Social Downloads 0
Likes 0
Share VATSIM

Download

Looking for another format? Having issues loading an existing format? Contact us
Advertisement - Login to hide

Notes

Generated

Route

KSHV R3106 KTUP

ID Type Via Altitude Latitude Longitude Leg Dist Tot Dist Heading (true) Name
O KSHV APT - 0 ft / 0 m 32.44506˚ -93.83292˚ - 0 nm - SHREVEPORT RGNL
R3106 FIX - 0 ft / 0 m 34.27704˚ -88.76992˚ 276 nm 276 nm 65° / 68° -
O KTUP APT - 0 ft / 0 m 34.27704˚ -88.76992˚ 0 nm 276 nm 0° / 180° -

Altitude Profile

Advertisement - Login to hide

Weather


0- 5 10 15 20 25 30 35+ Temperature / ° C

Clouds and Precipitation
Forecast for 2017-12-18 18:00 UTC. Updated 2 hours ago

Ground ~20,000 ft ~40,000 ft Winds

KSHV

Details ICAO KSHV (SHV)
Name SHREVEPORT RGNL
Region United States
Timezone America/Chicago (UTC-6.0)
Stats Elevation 257 ft / 78 m (AMSL)
Location 32.446960° -93.825410°
Runways 2
Magnetic Variation 1.434° E

METAR

KSHV 181456Z VRB03KT 1 1/4SM BCFG BR OVC002 09/09 A3023 RMK AO2 SLP236 T00940094 53017 $

Decode

TAF

TAF AMD KSHV 181256Z 1813/1912 VRB03KT 2SM BR OVC003 TEMPO 1813/1816 1/2SM FG OVC002 FM181600 VRB03KT 3SM BR OVC003 FM181900 VRB04KT 4SM BR OVC005 FM190100 10003KT 2SM BR OVC003 FM190600 15003KT 1SM BR OVC002 FM190900 16003KT 1SM BR VCSH OVC002

Decode

Departure Runways

ID Width Length Bearing (true) Bearing (mag) Surface Threshold Offset Overrun Length
05 150 ft / 46 m 6,197 ft / 1,889 m 60.78° 59.35° Asphalt 0 ft / 0 m 102 ft / 31 m
14 200 ft / 61 m 8,361 ft / 2,548 m 142.84° 141.41° Asphalt 0 ft / 0 m 102 ft / 31 m
23 150 ft / 46 m 6,197 ft / 1,889 m 240.79° 239.36° Asphalt 0 ft / 0 m 102 ft / 31 m
32 200 ft / 61 m 8,361 ft / 2,548 m 322.85° 321.42° Asphalt 374 ft / 114 m 102 ft / 31 m

KTUP

Details ICAO KTUP (TUP)
Name TUPELO RGNL
Region United States
Timezone America/Chicago (UTC-6.0)
Stats Elevation 346 ft / 105 m (AMSL)
Location 34.268111° -88.769894°
Runways 1
Magnetic Variation 2.135° W

METAR

KTUP 181453Z VRB05KT 7SM OVC002 11/09 A3021 RMK AO2 SLP231 T01060094 51014

Decode

TAF

KTUP 181122Z 1812/1912 00000KT 3/4SM BR VV004 FM181500 21004KT 4SM BR OVC007 FM181800 22005KT P6SM OVC009 FM182100 23005KT P6SM BKN012 FM190100 VRB03KT 5SM BR BKN007 FM190600 21003KT 3SM BR OVC004

Decode

Destination Runways

ID Width Length Bearing (true) Bearing (mag) Surface Threshold Offset Overrun Length
18 100 ft / 30 m 6,516 ft / 1,986 m 179.87° 182.00° Asphalt 0 ft / 0 m 0 ft / 0 m
36 100 ft / 30 m 6,516 ft / 1,986 m 359.87° 2.00° Asphalt 0 ft / 0 m 0 ft / 0 m

Approach Navaids

Runway Type Ident Frequency Range Bearing (true) Bearing (mag) Slope Elevation
36 Localiser ITUP 108.50 MHz 18 nm / 33 km 359.86° 2.00° - 346 ft / 105 m (AMSL)
36 Glidescope ITUP 108.50 MHz 10 nm / 19 km 359.87° 2.00° 3.00° 345 ft / 105 m (AMSL)

Popular Alternatives